Showing default

TIGRISAT, 40043

Orbit data source: Space-Track

TIGRISAT, 40043 is an Iraqi payload satellite in SSO that was launched on Thu, 19 Jun 2014 UTC via a DNEPR launch vehicle from the Orenburg, Russia (OREN). Payload-class satellites include a variety of spacecraft equipped with specific instruments for various scientific and technological missions. These include communications satellites like Starlink; space stations such as the ISS; scientific satellites like the Hubble; Earth observation satellites from companies like Planet Labs, Umbra, and HawkEye 360; GPS; miniature CubeSats for education and research; and military/defense satellites.

Loading next visibility...
Identifier
40043, 2014-033AK
Orbit
SSO
Country
Flag of UnknownUnknown / IRAQ
Related business
Manufacturer
Roma La Sapienza
Mission
Operational Civil Technology
Bus & Motor
CUBESAT 3U, Unknown motor
Mass
3.6 kg wet, 3.6 kg dry
Launch date (UTC)
2014-06-19 (11 years ago)
Launch vehicle
DNEPR
Launch site
Orenburg, Russia (OREN)
Object type
Payload
Rocket body
Debris
Shape & HBR
Box, 0.1 m
Radar Cross Section
0.075 m², Small (<0.1 m²)

Expand to show TLE details & history
Last TLE update: 1 day ago

TLE from 1 day ago
0 TIGRISAT
1 40043U 14033AK  25259.37090376  .00002727  00000-0  33188-3 0  9994
2 40043  97.7482  51.5715 0049807 252.0697 107.5083 14.83377973605000
Epoch: 2025-09-16T08:54Z
TLE epoch observation values (Epoch: 2025-09-16T08:54:06.084Z)
Latitude
-0.00009°
Longitude
-77.51601°
Altitude
632.356 km
Speed
7.536 km/s
True Right ascension
03h 26m 17s
True Declination
0° 00' 00"
Sunlit
Object was in full shadow at epoch
Visualization orbit readout
Latitude
Unknown
Longitude
Unknown
Altitude
Unknown
Speed
Unknown
Apparent Right ascension
Unknown
Apparent Declination
Unknown
Sunlit
N/A
Visualization observer readout
Local Sidereal Time
02:39:31
Azimuth
Unknown
Elevation
Unknown
Doppler factor
Unknown
Orbital elements
Apogee altitude
650.546 km
Perigee altitude
580.877 km
Semi-major axis
6,993.848 km
Eccentricity
0.00498
Inclination
97.7482°
RAAN
51.5715°
Arg. of periapsis
252.0697°
True anomaly
108.05158°
Mean anomaly
107.5083°
Eccentric anomaly
107.78004°
Mean motion
3.71081 °/min
Orbital period
97.01 mins
BSTAR
0.00033188
Loading maneuver chart data...
Computing Atmospheric mass density...
Loading historical data...
Loading historical data...
Loading historical data...
Loading historical data...
Loading historical data...
Loading historical data...
Loading historical data...

Documentation

Showing up to 5 results
|